Location: Ab? ar R?sh Ba?r?
(24.1861°N, 32.8847°E)
Time: 11:49:49
(UTC+00:00)

Milstar 3 Cent rocket - Pass Details

Date: 24 October 2021
Orbit: 706 x 5147 km, 28.3° (Epoch: 03 December)

Event Time Altitude Azimuth Distance (km) Brightness Sun altitude
Rises 15:36:55 0° 239° (WSW) 3,122 6.7 -5.8°
Reaches altitude 10° 15:38:57 10° 235° (SW) 2,303 5.7 -6.3°
Maximum altitude 15:43:57 61° 155° (SSE) 1,114 2.8 -7.4°
Enters shadow 15:52:26 11° 76° (ENE) 3,832 4.9 -9.3°
